Regional Weather Roundup
Issued by NWS

Home | Current Version | Previous Version | Text Only | Print | Product List | Glossary Off
Versions: 1 2 3 4 5 6 7 8 9 10 11 12 13 14 15 16 17 18 19 20 21 22 23 24 25 26 27 28 29 30 31 32 33 34 35 36 37 38 39 40 41 42 43 44 45 46 47 48 49 50

000
ASUS43 KLSX 291407
RWRMO

WEATHER SUMMARY FOR MISSOURI
NATIONAL WEATHER SERVICE SPRINGFIELD MO
900 AM CDT WED JUL 29 2015

NOTE: "FAIR" INDICATES FEW OR NO CLOUDS BELOW 12,000 FEET WITH NO
       SIGNIFICANT WEATHER AND/OR OBSTRUCTIONS TO VISIBILITY.
       CURRENT SKY AND/OR WEATHER CONDITIONS ARE NOT AVAILABLE FOR
       CHILLICOTHE AND FARMINGTON.

MOZ001>031-035>038-043-044-053-054-291500-
...NORTHERN AND WESTERN MISSOURI...

CITY           SKY/WX    TMP DP  RH WIND       PRES   REMARKS
KANSAS CTY INT CLOUDY    72  71  97 NW3       30.14R
KANSAS C DTWN  LGT RAIN  74  72  93 NW8       30.13R
LEE`S SUMMIT   PTSUNNY   73  70  90 NW13      30.14R
ST JOSEPH      CLOUDY    73  71  93 N5        30.13S
CHILLICOTHE      N/A     76  73  91 CALM      30.12R
KIRKSVILLE     PTSUNNY   76  70  82 NW6       30.11R

$$
MOZ066>068-077>081-088>096-101>105-291500-
...SOUTHWEST MISSOURI...

CITY           SKY/WX    TMP DP  RH WIND       PRES   REMARKS
SPRINGFIELD    SUNNY     82  72  71 CALM      30.10S
JOPLIN         SUNNY     82  74  76 E7        30.10S

$$
MOZ032>034-039>042-045>050-055>058-069>072-291500-
...CENTRAL MISSOURI...

CITY           SKY/WX    TMP DP  RH WIND       PRES   REMARKS
COLUMBIA       MOSUNNY   78  71  79 N10       30.08R
JEFFERSON CITY MOSUNNY   78  69  73 E3        30.04R
ROLLA          SUNNY     79  72  79 CALM      30.06R
SEDALIA        PTSUNNY   77  70  79 NW17G26   30.13R
WHITEMAN AFB   PTSUNNY   74  69  86 N13       30.10R
WARRENSBURG    PTSUNNY   73  70  88 N6        30.09F
OSAGE BEACH    SUNNY     81  68  65 S5        30.06F

$$
MOZ051-052-059>065-291500-
...EAST CENTRAL MISSOURI...

CITY           SKY/WX    TMP DP  RH WIND       PRES   REMARKS
ST LOUIS INTL  PTSUNNY   83  72  69 VRB5      30.02S
SPIRIT OF STL  PTSUNNY   81  73  76 N5        30.01S
ST CHARLES     PTSUNNY   79  72  79 N3        30.01R

$$
MOZ072>076-082>087-097>100-106>115-291500-
...SOUTH CENTRAL AND SOUTHEAST MISSOURI...

CITY           SKY/WX    TMP DP  RH WIND       PRES   REMARKS
CAPE GIRARDEAU SUNNY     85  79  82 W6        30.01R HX  98
FARMINGTON     SUNNY     82  75  78 NW7       30.09R
POPLAR BLUFF   PTSUNNY   86  78  77 NW5       30.01R HX  98
WEST PLAINS    MOSUNNY   84  75  74 NW9       30.10R HX  92

$$


USA.gov is the U.S. government's official web portal to all federal, state and local government web resources and services.